Weather in Myryla

Russia / Sakha (Yakutia) Republic     61°50′05″N   133°38′35″E
temp.,
°C
wind,
m/s
gust,
m/s
humid.,
%
clouds,
%
prec.,
mm/h
press.,
hPa
HPBL,
m
14 may, fri
fri1400:00+3e119396 0.0 101110
03:00+2ene119478 0.0 101210
06:00+5ne137099 0.0 1012205
09:00+10ne224175 0.0 1012826
12:00+13nne22315 0.0 10111769
15:00+14nne222715 0.0 10102170
18:00+13ne22295 0.0 10102020
21:00+6e11467 0.0 101110
15 may, sat
sat1500:00+4ese11565 0.0 101110
03:00+3ene116011 0.0 101110
06:00+7ne11476 0.0 1010123
09:00+12ene23334 0.0 10091636
12:00+15e22275 0.0 10072328
15:00+14se433987 0.0 10061985
18:00+12ese3557100 0.1 1007651
21:00+9se117197 0.2 100739
16 may, sun
sun1600:00+6se3117435 0.0 1008375
03:00+4se310846 0.0 1008282
06:00+6se38685 0.0 1007479
09:00+11se475097 0.0 10051313
12:00+11sse5750100 0.0 10041702
15:00+11sse4751100 0.0 10031667
18:00+11sse3750100 0.0 10021555
21:00+7sse3964100 0.0 1002405
17 may, mon
mon1700:00+5se31264100 0.0 1002555
03:00+3se2871100 0.0 1002244
06:00+6se41158100 0.0 1001727
09:00+9se61046100 0.0 10001399
12:00+10se6943100 0.0 9991882
15:00+11sse5937100 0.0 9982177
18:00+11sse3842100 0.0 9981966
21:00+6se1161100 0.0 99910
18 may, tue
tue1800:00+3sse226993 0.0 99948
03:00+3ese1465100 0.0 999130
06:00+5ese2559100 0.1 999538
09:00+8se2448100 0.1 9991237
12:00+10sse2541100 0.0 9982108
15:00+10ssw3442100 0.1 9991719
18:00+9wsw334694 0.0 10001446
21:00+4w227762 0.0 100135